FW4334 Weather Reports


Display with metric or nautical units.
time (UTC)temp
F
wind
direction
speed
MPH
gust
MPH
rain 1hr
in
rain 24hr
in
rain mn
in
humidity
%
barometer
mb
20260906181012 95 240 1.0 4.0 0.00 0.00 0.00 64 1011.1
20260906180512 95 207 0.0 4.0 0.00 0.00 0.00 63 1011.2
20260906180012 95 272 1.0 4.0 0.00 0.00 0.00 65 1011.3
20260906175512 96 221 1.0 4.0 0.00 0.00 0.00 63 1011.4
20260906175013 96 290 0.0 3.0 0.00 0.00 0.00 65 1011.4
20260906174509 97 284 1.0 3.0 0.00 0.00 0.00 62 1011.4
20260906174008 96 331 0.0 2.0 0.00 0.00 0.00 64 1011.5
20260906173506 95 322 0.0 4.0 0.00 0.00 0.00 65 1011.5
20260906173005 95 322 0.0 4.0 0.00 0.00 0.00 65 1011.5
20260906172503 95 196 0.0 2.0 0.00 0.00 0.00 64 1011.6
20260906172003 94 351 0.0 3.0 0.00 0.00 0.00 68 1011.7
20260906171602 93 351 0.0 4.0 0.00 0.00 0.00 69 1011.7
20260906171059 93 257 0.0 5.0 0.00 0.00 0.00 71 1011.8
20260906170557 92 233 1.0 5.0 0.00 0.00 0.00 71 1011.9
20260906170059 91 265 0.0 2.0 0.00 0.00 0.00 70 1011.9
20260906165557 91 265 0.0 3.0 0.00 0.00 0.00 68 1011.9
20260906165056 92 264 0.0 3.0 0.00 0.00 0.00 71 1012.1
20260906164605 92 267 0.0 3.0 0.00 0.00 0.00 69 1012.2
20260906164055 92 321 1.0 5.0 0.00 0.00 0.00 72 1012.3
20260906163555 92 287 1.0 5.0 0.00 0.00 0.00 71 1012.2
20260906163053 92 200 2.0 5.0 0.00 0.00 0.00 72 1012.2
20260906162551 92 317 0.0 2.0 0.00 0.00 0.00 72 1012.2
20260906162049 91 321 0.0 4.0 0.00 0.00 0.00 72 1012.2
20260906161549 91 215 1.0 5.0 0.00 0.00 0.00 70 1012.3
20260906161047 91 332 0.0 5.0 0.00 0.00 0.00 73 1012.2
20260906160546 91 298 1.0 2.0 0.00 0.00 0.00 71 1012.4
20260906160044 91 253 0.0 3.0 0.00 0.00 0.00 73 1012.3
20260906155543 91 268 1.0 3.0 0.00 0.00 0.00 72 1012.4
20260906155042 91 324 0.0 2.0 0.00 0.00 0.00 74 1012.6
20260906154548 90 306 0.0 2.0 0.00 0.00 0.00 75 1012.4
20260906154040 90 217 0.0 2.0 0.00 0.00 0.00 76 1012.5
20260906153537 89 301 0.0 2.0 0.00 0.00 0.00 76 1012.4
20260906153040 89 280 1.0 3.0 0.00 0.00 0.00 76 1012.4
20260906152536 89 306 0.0 3.0 0.00 0.00 0.00 76 1012.4
20260906152036 88 198 0.0 3.0 0.00 0.00 0.00 77 1012.5
20260906151535 88 226 0.0 5.0 0.00 0.00 0.00 78 1012.5
20260906151033 88 261 0.0 4.0 0.00 0.00 0.00 78 1012.4
20260906150533 88 292 1.0 3.0 0.00 0.00 0.00 78 1012.5
20260906150032 88 291 0.0 3.0 0.00 0.00 0.00 81 1012.5
20260906145530 87 313 0.0 6.0 0.00 0.00 0.00 81 1012.3
20260906145029 87 145 1.0 6.0 0.00 0.00 0.00 82 1012.5
20260906144529 87 288 1.0 3.0 0.00 0.00 0.00 82 1012.5
20260906144029 86 312 0.0 4.0 0.00 0.00 0.00 83 1012.4
20260906143527 86 289 2.0 5.0 0.00 0.00 0.00 83 1012.4
20260906143032 86 282 1.0 4.0 0.00 0.00 0.00 84 1012.5
20260906142529 86 329 1.0 4.0 0.00 0.00 0.00 85 1012.5
20260906142024 85 306 0.0 4.0 0.00 0.00 0.00 85 1012.5
20260906141523 85 271 1.0 4.0 0.00 0.00 0.00 85 1012.7
20260906141022 84 279 0.0 4.0 0.00 0.00 0.00 86 1012.6
20260906140526 84 284 1.0 4.0 0.00 0.00 0.00 86 1012.7
20260906140032 84 305 0.0 3.0 0.00 0.00 0.00 87 1012.8
20260906135518 83 311 0.0 3.0 0.00 0.00 0.00 88 1012.7
20260906135018 83 311 1.0 3.0 0.00 0.00 0.00 89 1012.7
20260906134516 82 315 1.0 3.0 0.00 0.00 0.00 89 1012.6
20260906134015 82 313 0.0 3.0 0.00 0.00 0.00 90 1012.7
20260906133515 81 323 0.0 2.0 0.00 0.00 0.00 90 1012.7
20260906133012 81 324 0.0 3.0 0.00 0.00 0.00 90 1012.8
20260906132512 81 286 0.0 3.0 0.00 0.00 0.00 90 1012.9
20260906132010 81 281 0.0 2.0 0.00 0.00 0.00 91 1012.8
20260906131514 80 252 0.0 2.0 0.00 0.00 0.00 91 1012.9
20260906131008 80 338 0.0 2.0 0.00 0.00 0.00 92 1012.9
20260906130507 79 339 0.0 2.0 0.00 0.00 0.00 92 1012.9
20260906130015 79 340 0.0 2.0 0.00 0.00 0.00 92 1012.8
20260906125507 79 265 0.0 0.0 0.00 0.00 0.00 93 1012.8
20260906125006 78 238 0.0 0.0 0.00 0.00 0.00 93 1012.8
20260906124505 78 238 0.0 0.0 0.00 0.00 0.00 94 1012.7
20260906124005 78 238 0.0 0.0 0.00 0.00 0.00 94 1012.7
20260906123505 78 238 0.0 0.0 0.00 0.00 0.00 94 1012.7
20260906123011 77 238 0.0 0.0 0.00 0.00 0.00 94 1012.6
20260906122505 77 235 0.0 0.0 0.00 0.00 0.00 94 1012.7
20260906122005 77 235 0.0 0.0 0.00 0.00 0.00 94 1012.8
20260906121505 77 232 0.0 0.0 0.00 0.00 0.00 94 1012.8
20260906121004 77 232 0.0 0.0 0.00 0.00 0.00 94 1012.8
20260906120503 76 232 0.0 0.0 0.00 0.00 0.00 94 1012.8
20260906120003 76 232 0.0 0.0 0.00 0.00 0.00 94 1012.8
20260906115502 76 232 0.0 3.0 0.00 0.00 0.00 95 1012.8
20260906115001 76 216 0.0 2.0 0.00 0.00 0.00 95 1012.7
20260906114501 76 194 0.0 0.0 0.00 0.00 0.00 95 1012.6
20260906114004 76 192 0.0 0.0 0.00 0.00 0.00 94 1012.6
20260906113600 76 192 0.0 0.0 0.00 0.00 0.00 94 1012.6
20260906113201 76 192 0.0 0.0 0.00 0.00 0.00 94 1012.5
20260906112559 76 192 0.0 0.0 0.00 0.00 0.00 94 1012.4
20260906112059 76 192 0.0 0.0 0.00 0.00 0.00 94 1012.3
20260906111559 76 192 0.0 0.0 0.00 0.00 0.00 94 1012.1
20260906111101 76 192 0.0 0.0 0.00 0.00 0.00 94 1012.1
20260906110600 76 192 0.0 0.0 0.00 0.00 0.00 94 1012.1
20260906110100 76 192 0.0 0.0 0.00 0.00 0.00 94 1012.0
20260906105557 76 192 0.0 0.0 0.00 0.00 0.00 94 1012.0
20260906105057 76 192 0.0 1.0 0.00 0.00 0.00 94 1011.9
20260906104556 76 192 0.0 1.0 0.00 0.00 0.00 94 1011.9
20260906104058 76 192 0.0 1.0 0.00 0.00 0.00 94 1011.9
20260906103556 76 192 0.0 0.0 0.00 0.00 0.00 94 1011.9
20260906103056 76 192 0.0 0.0 0.00 0.00 0.00 94 1011.8
20260906102554 76 192 0.0 2.0 0.00 0.00 0.00 94 1011.8
20260906102054 76 192 0.0 0.0 0.00 0.00 0.00 94 1011.8
20260906101554 76 192 0.0 0.0 0.00 0.00 0.00 94 1011.7
20260906101053 76 192 0.0 0.0 0.00 0.00 0.00 94 1011.7
20260906100553 76 192 0.0 0.0 0.00 0.00 0.00 94 1011.8
20260906100052 76 192 0.0 0.0 0.00 0.00 0.00 94 1011.8
20260906095551 76 192 0.0 0.0 0.00 0.00 0.00 94 1011.8
20260906095051 76 192 0.0 0.0 0.00 0.00 0.00 94 1011.7
20260906094552 76 192 0.0 0.0 0.00 0.00 0.00 94 1011.8
20260906094050 76 192 0.0 0.0 0.00 0.00 0.00 94 1011.8
20260906093552 76 192 0.0 0.0 0.00 0.00 0.00 94 1011.7
20260906093100 76 192 0.0 0.0 0.00 0.00 0.00 94 1011.6
20260906092549 76 192 0.0 0.0 0.00 0.00 0.00 94 1011.5
20260906092049 76 192 0.0 0.0 0.00 0.00 0.00 94 1011.5
20260906091549 76 192 0.0 0.0 0.00 0.00 0.00 94 1011.5
20260906091049 76 192 0.0 0.0 0.00 0.00 0.00 94 1011.6
20260906090548 76 192 0.0 0.0 0.00 0.00 0.00 94 1011.5
20260906090048 76 192 0.0 0.0 0.00 0.00 0.00 94 1011.5
20260906085547 76 192 0.0 0.0 0.00 0.00 0.00 94 1011.3
20260906085047 76 192 0.0 0.0 0.00 0.00 0.00 94 1011.4
20260906084548 76 192 0.0 0.0 0.00 0.00 0.00 94 1011.5
20260906084048 76 192 0.0 0.0 0.00 0.00 0.00 94 1011.6
20260906083548 76 192 0.0 0.0 0.00 0.00 0.00 94 1011.3
20260906083049 76 192 0.0 0.0 0.00 0.00 0.00 94 1011.3
20260906082546 76 192 0.0 0.0 0.00 0.00 0.00 94 1011.3
20260906082050 77 192 0.0 0.0 0.00 0.00 0.00 94 1011.3
20260906081551 76 192 0.0 0.0 0.00 0.00 0.00 94 1011.1
20260906081045 76 192 0.0 0.0 0.00 0.00 0.00 93 1011.4
20260906080545 77 192 0.0 0.0 0.00 0.00 0.00 93 1011.3
20260906080045 77 192 0.0 0.0 0.00 0.00 0.00 93 1011.2
20260906075543 77 192 0.0 0.0 0.00 0.00 0.00 93 1011.1
20260906075043 77 192 0.0 0.0 0.00 0.00 0.00 93 1011.2
20260906074543 77 192 0.0 0.0 0.00 0.00 0.00 93 1011.2
20260906074042 77 192 0.0 0.0 0.00 0.00 0.00 93 1011.3
20260906073542 77 192 0.0 0.0 0.00 0.00 0.00 93 1011.4
20260906073042 77 192 0.0 0.0 0.00 0.00 0.00 93 1011.2
20260906072542 77 192 0.0 0.0 0.00 0.00 0.00 93 1011.1
20260906072043 77 192 0.0 0.0 0.00 0.00 0.00 93 1011.3
20260906071552 77 192 0.0 0.0 0.00 0.00 0.00 93 1011.3
20260906071045 77 192 0.0 0.0 0.00 0.00 0.00 93 1011.3
20260906070541 77 192 0.0 0.0 0.00 0.00 0.00 93 1011.3
20260906070040 77 192 0.0 0.0 0.00 0.00 0.00 93 1011.3
20260906065543 77 192 0.0 0.0 0.00 0.00 0.00 93 1011.3
20260906065040 77 192 0.0 0.0 0.00 0.00 0.00 93 1011.2
20260906064541 78 192 0.0 0.0 0.00 0.00 0.00 93 1011.2
20260906064041 78 192 0.0 0.0 0.00 0.00 0.00 93 1011.1
20260906063542 78 192 0.0 0.0 0.00 0.00 0.00 93 1011.3
20260906063038 78 192 0.0 0.0 0.00 0.00 0.00 93 1011.3
20260906062537 78 192 0.0 0.0 0.00 0.00 0.00 93 1011.3
20260906062040 78 192 0.0 0.0 0.00 0.00 0.00 93 1011.3
20260906061538 78 192 0.0 0.0 0.00 0.00 0.00 93 1011.5
20260906061036 78 192 0.0 0.0 0.00 0.00 0.00 93 1011.5
20260906060536 78 192 0.0 0.0 0.00 0.00 0.00 93 1011.5
20260906060034 78 192 0.0 1.0 0.00 0.00 0.00 93 1011.7
20260906055533 78 192 0.0 1.0 0.00 0.00 0.00 93 1011.7
20260906055034 78 192 0.0 0.0 0.00 0.00 0.00 93 1011.8
20260906054534 78 192 0.0 0.0 0.00 0.00 0.00 93 1011.9
20260906054033 78 192 0.0 0.0 0.00 0.00 0.00 93 1011.9
20260906053535 78 192 0.0 0.0 0.00 0.00 0.00 93 1012.0
20260906053036 78 192 0.0 0.0 0.00 0.00 0.00 93 1011.9
20260906052533 78 192 0.0 0.0 0.00 0.00 0.00 93 1011.8
20260906052031 78 192 0.0 0.0 0.00 0.00 0.00 93 1011.8
20260906051534 78 192 0.0 0.0 0.00 0.00 0.00 93 1011.8
20260906051031 78 192 0.0 1.0 0.00 0.00 0.00 93 1011.7
20260906050534 78 192 0.0 1.0 0.00 0.00 0.00 93 1011.9
20260906050052 78 192 0.0 3.0 0.00 0.00 0.00 93 1011.9
20260906045530 79 192 0.0 3.0 0.00 0.00 0.00 93 1012.0
20260906045029 79 193 0.0 0.0 0.00 0.00 0.00 93 1011.8
20260906044529 79 192 0.0 0.0 0.00 0.00 0.00 93 1011.9
20260906044031 79 193 0.0 0.0 0.00 0.00 0.00 93 1012.1
20260906043526 79 192 0.0 1.0 0.00 0.00 0.00 93 1012.1
20260906043027 79 192 0.0 3.0 0.00 0.00 0.00 93 1012.2
20260906042525 79 192 0.0 2.0 0.00 0.00 0.00 93 1012.3
20260906042025 79 188 0.0 0.0 0.00 0.00 0.00 93 1012.3
20260906041524 79 188 0.0 0.0 0.00 0.00 0.00 93 1012.3
20260906041022 79 188 0.0 0.0 0.00 0.00 0.00 93 1012.4
20260906040523 79 188 0.0 0.0 0.00 0.00 0.00 93 1012.3
20260906040022 79 188 0.0 0.0 0.00 0.00 0.00 93 1012.4
20260906035521 79 188 0.0 0.0 0.00 0.00 0.00 93 1012.5
20260906035021 80 188 0.0 0.0 0.00 0.00 0.00 93 1012.5
20260906034531 80 188 0.0 0.0 0.00 0.00 0.00 93 1012.5
20260906034021 80 188 0.0 0.0 0.00 0.00 0.00 92 1012.6
20260906033520 80 188 0.0 0.0 0.00 0.00 0.00 92 1012.6
20260906033025 80 188 0.0 0.0 0.00 0.00 0.00 92 1012.6
20260906032520 80 188 0.0 0.0 0.00 0.00 0.00 92 1012.7
20260906032020 80 188 0.0 0.0 0.00 0.00 0.00 92 1012.8
20260906031525 80 188 0.0 0.0 0.00 0.00 0.00 92 1012.8
20260906031021 80 188 0.0 0.0 0.00 0.00 0.00 92 1012.7
20260906030523 80 188 0.0 0.0 0.00 0.00 0.00 92 1012.7
20260906030020 80 188 0.0 0.0 0.00 0.00 0.00 92 1012.5
20260906025519 80 188 0.0 0.0 0.00 0.00 0.00 92 1012.5
20260906025019 80 188 0.0 2.0 0.00 0.00 0.00 92 1012.5
20260906024518 80 186 0.0 3.0 0.00 0.00 0.00 92 1012.5
20260906024019 80 188 1.0 3.0 0.00 0.00 0.00 92 1012.6
20260906023519 80 200 0.0 3.0 0.00 0.00 0.00 92 1012.6
20260906023024 80 202 0.0 0.0 0.00 0.00 0.00 92 1012.6
20260906022518 80 192 0.0 0.0 0.00 0.00 0.00 92 1012.5
20260906022018 80 192 0.0 0.0 0.00 0.00 0.00 92 1012.6
20260906021519 80 192 0.0 0.0 0.00 0.00 0.00 92 1012.5
20260906021018 80 186 0.0 0.0 0.00 0.00 0.00 92 1012.5
20260906020521 81 186 0.0 0.0 0.00 0.00 0.00 92 1012.3
20260906020017 81 186 0.0 0.0 0.00 0.00 0.00 92 1012.1
20260906015516 81 187 0.0 0.0 0.00 0.00 0.00 92 1012.0
20260906015018 81 187 0.0 0.0 0.00 0.00 0.00 92 1011.9
20260906014516 81 187 0.0 0.0 0.00 0.00 0.00 92 1011.9
20260906014018 81 186 0.0 0.0 0.00 0.00 0.00 92 1011.8
20260906013515 81 186 0.0 0.0 0.00 0.00 0.00 92 1011.9
20260906013015 81 186 0.0 0.0 0.00 0.00 0.00 92 1011.9
20260906012615 81 186 0.0 0.0 0.00 0.00 0.00 92 1011.9
20260906012014 81 186 0.0 0.0 0.00 0.00 0.00 92 1011.9
20260906011514 81 180 0.0 2.0 0.00 0.00 0.00 91 1011.9
20260906011013 81 180 0.0 2.0 0.00 0.00 0.00 91 1011.9
20260906010516 81 180 0.0 1.0 0.00 0.00 0.00 91 1011.8
20260906010011 81 185 0.0 1.0 0.00 0.00 0.00 91 1011.7
20260906005515 81 184 0.0 0.0 0.00 0.01 0.00 91 1011.7
20260906005012 81 184 0.0 1.0 0.00 0.01 0.00 91 1011.5
20260906004512 81 184 0.0 1.0 0.00 0.01 0.00 91 1011.5
20260906004011 81 180 0.0 0.0 0.00 0.01 0.00 91 1011.5
20260906003514 81 180 0.0 0.0 0.00 0.01 0.00 90 1011.5
20260906003011 82 180 0.0 0.0 0.00 0.01 0.00 90 1011.6
20260906002512 82 180 0.0 0.0 0.00 0.01 0.00 90 1011.4
20260906002011 82 180 0.0 0.0 0.00 0.01 0.00 90 1011.3
20260906001510 82 180 0.0 0.0 0.00 0.01 0.00 90 1011.3
20260906001010 82 180 0.0 0.0 0.00 0.01 0.00 89 1011.2
20260906000510 82 180 0.0 0.0 0.00 0.01 0.00 89 1011.1
20260906000010 83 180 0.0 0.0 0.00 0.01 0.00 89 1011.0
20260905235510 83 180 0.0 3.0 0.00 0.01 0.00 89 1011.0
20260905235009 83 180 0.0 3.0 0.00 0.01 0.00 88 1011.0
20260905234509 83 173 0.0 4.0 0.00 0.01 0.00 88 1011.0
20260905234012 84 197 1.0 4.0 0.00 0.01 0.00 87 1010.9
20260905233510 84 153 0.0 4.0 0.00 0.01 0.00 87 1011.0
20260905233020 84 157 1.0 4.0 0.00 0.01 0.00 86 1011.0
20260905232514 85 165 0.0 2.0 0.00 0.01 0.00 86 1011.1
20260905232008 85 165 0.0 3.0 0.00 0.01 0.00 85 1011.0
20260905231508 85 165 0.0 3.0 0.00 0.01 0.00 86 1011.0
20260905231006 85 209 0.0 3.0 0.00 0.01 0.00 86 1011.0
20260905230506 85 210 0.0 2.0 0.00 0.01 0.00 86 1011.2
20260905230005 85 210 0.0 3.0 0.00 0.01 0.00 85 1011.2
20260905225504 85 211 0.0 3.0 0.00 0.01 0.00 85 1011.3
20260905225004 85 192 0.0 0.0 0.00 0.01 0.00 85 1011.5
20260905224508 85 192 0.0 0.0 0.00 0.01 0.00 85 1011.4
20260905224004 85 192 0.0 3.0 0.00 0.01 0.00 85 1011.7
20260905223503 85 190 0.0 3.0 0.00 0.01 0.00 85 1011.7
20260905223003 85 199 0.0 2.0 0.00 0.01 0.00 85 1011.7
20260905222503 85 155 0.0 2.0 0.00 0.01 0.00 85 1011.7
20260905222003 85 156 0.0 3.0 0.00 0.01 0.00 85 1011.9
20260905221502 85 198 0.0 4.0 0.00 0.01 0.00 85 1011.9
20260905221002 85 201 0.0 4.0 0.00 0.01 0.00 85 1011.9
20260905220501 85 184 0.0 3.0 0.00 0.01 0.00 85 1012.0
20260905220002 84 158 1.0 5.0 0.00 0.01 0.00 85 1011.9
20260905215500 84 211 1.0 5.0 0.00 0.01 0.00 85 1012.0
20260905215000 84 218 0.0 4.0 0.00 0.01 0.00 85 1012.0
20260905214501 84 213 1.0 5.0 0.00 0.01 0.00 85 1012.0
20260905214001 84 208 0.0 5.0 0.00 0.01 0.00 86 1012.0
20260905213602 83 154 0.0 3.0 0.00 0.01 0.00 87 1012.0
20260905213111 83 128 0.0 3.0 0.00 0.01 0.00 86 1011.8
20260905212600 83 200 0.0 3.0 0.00 0.01 0.00 87 1011.9
20260905212059 83 155 1.0 7.0 0.00 0.01 0.00 88 1012.0
20260905211602 83 186 3.0 7.0 0.00 0.01 0.00 88 1012.0
20260905211059 82 126 0.0 3.0 0.00 0.01 0.00 88 1012.1
20260905210559 82 125 1.0 2.0 0.00 0.01 0.00 88 1011.9
20260905210059 82 202 0.0 2.0 0.00 0.01 0.00 88 1012.0
20260905205558 82 134 0.0 2.0 0.00 0.01 0.00 88 1012.2
20260905205100 82 134 1.0 3.0 0.00 0.01 0.00 88 1012.1
20260905204558 82 142 0.0 3.0 0.00 0.01 0.00 88 1012.1
20260905204059 82 143 1.0 6.0 0.00 0.01 0.00 88 1012.3
20260905203600 82 138 1.0 6.0 0.00 0.01 0.00 88 1012.4
20260905203057 83 145 1.0 4.0 0.00 0.01 0.00 87 1012.3
20260905202556 83 190 1.0 3.0 0.00 0.01 0.00 86 1012.2
20260905202057 83 159 1.0 3.0 0.00 0.01 0.00 86 1012.2
20260905201600 83 182 0.0 3.0 0.00 0.01 0.00 86 1012.2
20260905201056 83 157 0.0 2.0 0.00 0.01 0.00 85 1012.1
20260905200556 84 117 1.0 2.0 0.00 0.01 0.00 85 1012.1
20260905200059 84 114 0.0 2.0 0.00 0.01 0.00 84 1012.1
20260905195555 85 113 1.0 2.0 0.00 0.01 0.00 83 1012.3
20260905195055 85 111 0.0 1.0 0.00 0.01 0.00 83 1012.4
20260905194559 85 111 0.0 2.0 0.00 0.01 0.00 83 1012.5
20260905194056 86 111 1.0 2.0 0.00 0.01 0.00 81 1012.4
20260905193556 86 69 0.0 2.0 0.00 0.01 0.00 80 1012.4
20260905193055 86 69 0.0 2.0 0.00 0.01 0.00 80 1012.7
20260905192558 86 69 0.0 0.0 0.00 0.01 0.00 79 1012.8
20260905192057 86 69 0.0 0.0 0.00 0.01 0.00 80 1012.3
20260905191603 86 69 0.0 1.0 0.00 0.01 0.00 81 1012.1
20260905191054 86 69 0.0 2.0 0.00 0.01 0.00 80 1012.4
20260905190556 86 69 0.0 2.0 0.00 0.01 0.00 82 1012.7
20260905190053 86 71 0.0 2.0 0.00 0.01 0.00 82 1013.1
20260905185556 86 71 0.0 5.0 0.00 0.01 0.00 81 1013.1
20260905185055 86 71 1.0 5.0 0.00 0.01 0.00 81 1012.7
20260905184606 87 306 0.0 3.0 0.00 0.01 0.00 82 1013.0
20260905184052 87 351 0.0 3.0 0.00 0.01 0.00 80 1012.7
20260905183553 87 351 0.0 3.0 0.00 0.01 0.00 78 1012.6
20260905183053 88 328 1.0 4.0 0.00 0.01 0.00 77 1013.0
20260905182555 89 332 1.0 5.0 0.00 0.01 0.00 75 1013.1
20260905182055 91 338 1.0 12.0 0.00 0.01 0.00 74 1012.8
20260905181552 93 339 3.0 8.0 0.00 0.01 0.00 71 1012.6